Location: Unspecified
(48.7670°N, 0.0000°E)
Time: 18:13:44
(UTC+00:00)

Vanguard 2 - All Passes

Search period start: 25 June 2019 00:00
Search period end: 05 July 2019 00:00
Orbit: 553 x 2939 km, 32.9° (Epoch: 25 June)

Date Brightness Start Highest point End Pass type
(mag) Time Alt. Az. Time Alt. Az. Time Alt. Az.
25 Jun - 08:48:20 10° SW 08:52:26 20° SSE 08:57:57 10° SE daylight
25 Jun - 10:54:59 10° SW 11:00:24 22° S 11:07:54 10° SE daylight
25 Jun - 13:04:44 10° SW 13:09:07 14° SSW 13:14:19 10° S daylight
26 Jun - 07:02:06 10° SSE 07:02:53 10° SSE 07:03:41 10° SE daylight
26 Jun - 09:05:56 10° SW 09:10:04 20° S 09:15:37 10° SE daylight
26 Jun - 11:13:11 10° SW 11:18:08 19° S 11:24:43 10° SSE daylight
27 Jun - 07:18:20 10° S 07:20:22 12° SSE 07:22:40 10° SE daylight
27 Jun - 09:23:41 10° SW 09:27:43 19° S 09:33:05 10° SE daylight
27 Jun - 11:31:46 10° SW 11:35:53 15° SSW 11:40:59 10° SSE daylight
28 Jun - 07:35:27 10° SSW 07:37:54 14° SSE 07:40:47 10° SE daylight
28 Jun - 09:41:39 10° SW 09:45:25 17° S 09:50:17 10° SSE daylight
28 Jun - 11:51:35 10° SSW 11:53:38 11° SSW 11:55:53 10° S daylight
29 Jun - 07:52:55 10° SSW 07:55:30 14° S 07:58:33 10° SE daylight
29 Jun - 09:59:55 10° SW 10:03:08 14° S 10:07:05 10° SSE daylight
30 Jun - 08:10:39 10° SSW 08:13:08 14° S 08:16:04 10° SSE daylight
30 Jun - 10:18:56 10° SSW 10:20:52 11° SSW 10:23:01 10° S daylight
01 Jul - 08:28:41 10° SSW 08:30:48 13° S 08:33:12 10° SSE daylight
02 Jul - 06:40:36 10° S 06:41:06 10° S 06:41:36 10° SSE daylight
02 Jul - 08:47:31 10° SSW 08:48:29 10° S 08:49:30 10° S daylight
03 Jul - 06:58:16 10° S 06:58:43 10° S 06:59:12 10° S daylight
